Regional Weather Roundup
Issued by NWS Albany, NY

Home | Current Version | Previous Version | Text Only | Print | Product List | Glossary On
Versions: 1 2 3 4 5 6 7 8 9 10 11 12 13 14 15 16 17 18 19 20 21 22 23 24 25 26 27 28 29 30 31 32 33 34 35 36 37 38 39 40 41 42 43 44 45 46 47 48 49 50
000
ASUS41 KALY 242010
RWRALY

NEW YORK STATE HOURLY WEATHER ROUNDUP
NATIONAL WEATHER SERVICE ALBANY NY
300 PM EST FRI FEB 24 2017

NOTE: "FAIR" INDICATES FEW OR NO CLOUDS BELOW 12,000 FEET WITH NO
SIGNIFICANT WEATHER AND/OR NO OBSTRUCTIONS TO VISIBILITY.

NYZ032-033-038>043-046>054-057>066-NYZ062>081-082-084-242100-
EAST


CITY           SKY/WX    TMP DP  RH WIND       PRES   REMARKS
ALBANY         MOSUNNY   73  51  46 S16G22    29.77F
GLENS FALLS    MOSUNNY   55  44  66 N7        29.79F
POUGHKEEPSIE   SUNNY     73  51  46 S12G18    29.80F
NEWBURGH       MOSUNNY   73  54  49 SW16G28   29.84S
MONTGOMERY     MOSUNNY   75  53  46 S15       29.80S
WHITE PLAINS   MOSUNNY   67  53  61 S15G22    29.87S
ISLIP          MOSUNNY   62  52  69 S16G25    29.90F
NEW YORK CITY  MOSUNNY   68  51  54 S15       29.86F
CENTRAL PARK   SUNNY     68  52  56 S5        29.89F
$$

NYZ005>009-017-018-044>046-055-056-242100-
CENTRAL


CITY           SKY/WX    TMP DP  RH WIND       PRES   REMARKS
FULTON         MOSUNNY   60  52  74 VRB5      29.69F
SYRACUSE       PTSUNNY   66  53  63 N5        29.69F
ROME           MOSUNNY   64  52  64 E6        29.72F
ELMIRA         PTSUNNY   74  51  44 S12G22    29.70F
BINGHAMTON     MOSUNNY   69  48  47 S18G24    29.75F
MONTICELLO     MOSUNNY   70  52  52 S10G20    29.84F
$$

NYZ026>034-041>043-087-242100-
NORTH


CITY           SKY/WX    TMP DP  RH WIND       PRES   REMARKS
WATERTOWN      CLOUDY    42  40  92 NE14      29.74F
FORT DRUM      NOT AVBL
OGDENSBURG     CLOUDY    37  36  95 E8        29.78F WCI  31
MASSENA        CLOUDY    38  36  92 NE12      29.83S WCI  30
SARANAC LAKE   CLOUDY    44  44 100 NE5       29.75S
PLATTSBURGH    CLOUDY    43  38  82 N7        29.83R
$$

NYZ001>004-010>016-019>021-085-242100-
WEST


CITY           SKY/WX    TMP DP  RH WIND       PRES   REMARKS
NIAGARA FALLS  CLOUDY    59  49  69 N7        29.63F
BUFFALO        PTSUNNY   66  53  63 SW9       29.63F
DUNKIRK        MOSUNNY   73  53  49 SW17G28   29.61F
JAMESTOWN        N/A     70  48  46 SW15G25   29.66F
WELLSVILLE     MOSUNNY   72  48  42 SW10G21   29.73F
ROCHESTER      MOSUNNY   53  46  77 NE7       29.66F
PENN YAN       CLOUDY    73  49  42 S14G25    29.68F
$$

             KEY
       WCI = WIND CHILL INDEX
       VSB = VISIBILITY
       HX  = HEAT INDEX
$$



USA.gov is the U.S. government's official web portal to all federal, state and local government web resources and services.